Location: Ertinghausen
(51.6624°N, 9.7874°E)
Time: 17:29:25
(UTC+00:00)

Cosmos 2360 Rocket - Pass Details

Date: 23 May 2024
Orbit: 832 x 846 km, 71.0° (Epoch: 24 June)

Event Time Altitude Azimuth Distance (km) Brightness Sun altitude
Rises 01:56:39 0° 327° (NNW) 3,417 5.6 -9.8°
Reaches altitude 10° 01:59:08 10° 324° (NW) 2,478 4.8 -9.5°
Maximum altitude 02:04:41 58° 247° (WSW) 988 2.3 -9.0°
Drops below altitude 10° 02:10:13 10° 170° (S) 2,462 4.3 -8.4°
Sets 02:12:41 0° 166° (SSE) 3,392 5.0 -8.2°
